Total_Precipitation_Accumulation
0.03 0.12 0.31 0.36 0.31 0.06 0.00 0.00 0.01 0.02 0.02 0.00 0.00 0.01 0.01 0.00 0.00 0.02 0.00 0.01 0.02 0.02 0.03 0.01 0.01 0.00 0.00 0.00 0.02 0.02 0.01 0.01 0.02 0.01 0.00 0.00 0.00 0.00 0.00 0.01 0.00 0.00 0.00
0.23 0.13 0.45 0.67 0.88 0.34 0.09 0.02 0.00 0.04 0.10 0.04 0.02 0.03 0.02 0.01 0.00 0.00 0.00 0.00 0.01 0.02 0.02 0.02 0.00 0.01 0.03 0.00 0.01 0.03 0.04 0.02 0.01 0.12 0.03 0.03 0.44 0.10 0.01 0.06 0.04 0.00 0.00
0.05 0.07 0.11 0.25 0.40 0.65 0.30 0.03 0.02 0.03 0.03 0.02 0.06 0.08 0.07 0.05 0.03 0.00 0.00 0.00 0.01 0.04 0.08 0.11 0.04 0.09 0.09 0.03 0.04 0.01 0.02 0.04 0.03 0.07 0.03 0.00 0.01 0.02 0.16 0.19 0.15 0.02 0.00
0.00 0.00 0.01 0.03 0.06 0.10 0.10 0.01 0.03 0.06 0.03 0.02 0.03 0.10 0.11 0.13 0.10 0.07 0.07 0.06 0.05 0.03 0.04 0.09 0.04 0.07 0.13 0.11 0.09 0.12 0.05 0.06 0.08 0.07 0.05 0.00 0.00 0.01 0.10 0.25 0.18 0.13 0.10
0.00 0.00 0.00 0.00 0.00 0.00 0.01 0.01 0.00 0.02 0.05 0.07 0.04 0.05 0.05 0.09 0.13 0.17 0.16 0.18 0.18 0.13 0.09 0.10 0.04 0.04 0.11 0.34 0.25 0.16 0.18 0.15 0.07 0.07 0.06 0.07 0.01 0.00 0.07 0.08 0.10 0.11 0.11
0.00 0.00 0.00 0.00 0.00 0.00 0.00 0.00 0.00 0.00 0.00 0.00 0.01 0.09 0.08 0.03 0.06 0.16 0.15 0.13 0.16 0.18 0.17 0.14 0.13 0.27 0.17 0.15 0.10 0.06 0.17 0.23 0.12 0.08 0.04 0.06 0.07 0.05 0.01 0.05 0.06 0.19 0.11
0.00 0.00 0.00 0.00 0.00 0.00 0.00 0.00 0.00 0.00 0.00 0.00 0.00 0.04 0.10 0.06 0.09 0.06 0.11 0.05 0.03 0.07 0.12 0.14 0.09 0.03 0.10 0.10 0.16 0.10 0.07 0.10 0.08 0.14 0.12 0.06 0.09 0.12 0.15 0.09 0.05 0.11 0.06
0.00 0.00 0.00 0.00 0.00 0.00 0.00 0.00 0.00 0.00 0.00 0.00 0.00 0.01 0.05 0.08 0.18 0.29 0.38 0.19 0.06 0.05 0.05 0.08 0.08 0.12 0.12 0.18 0.19 0.14 0.08 0.04 0.06 0.03 0.02 0.01 0.02 0.15 0.18 0.17 0.17 0.10 0.08
0.00 0.00 0.00 0.00 0.00 0.00 0.00 0.00 0.00 0.00 0.00 0.00 0.00 0.00 0.00 0.01 0.06 0.18 0.38 0.45 0.39 0.29 0.20 0.14 0.06 0.04 0.04 0.17 0.24 0.13 0.12 0.06 0.03 0.03 0.02 0.02 0.08 0.15 0.17 0.19 0.08 0.06 0.00
0.00 0.00 0.00 0.00 0.00 0.00 0.00 0.00 0.00 0.00 0.00 0.00 0.00 0.00 0.00 0.00 0.00 0.00 0.05 0.21 0.33 0.42 0.53 0.41 0.21 0.10 0.17 0.30 0.20 0.18 0.17 0.07 0.16 0.16 0.13 0.04 0.05 0.10 0.12 0.08 0.13 0.11 0.08
0.00 0.00 0.00 0.00 0.00 0.00 0.00 0.00 0.00 0.00 0.00 0.00 0.00 0.00 0.00 0.00 0.00 0.00 0.00 0.03 0.12 0.22 0.17 0.28 0.45 0.42 0.30 0.28 0.23 0.11 0.05 0.13 0.23 0.27 0.21 0.17 0.11 0.05 0.03 0.00 0.04 0.09 0.09
0.00 0.00 0.00 0.00 0.00 0.00 0.00 0.00 0.00 0.01 0.01 0.01 0.01 0.00 0.00 0.00 0.00 0.01 0.00 0.00 0.04 0.28 0.46 0.34 0.32 0.35 0.37 0.33 0.26 0.15 0.13 0.17 0.13 0.16 0.16 0.10 0.11 0.04 0.01 0.01 0.04 0.03 0.03
0.00 0.00 0.00 0.00 0.00 0.00 0.00 0.01 0.00 0.01 0.01 0.01 0.00 0.00 0.00 0.00 0.00 0.00 0.00 0.00 0.00 0.02 0.27 0.50 0.50 0.39 0.39 0.19 0.08 0.08 0.14 0.07 0.06 0.05 0.05 0.04 0.04 0.02 0.04 0.06 0.15 0.18 0.11
0.00 0.00 0.00 0.00 0.00 0.00 0.00 0.01 0.01 0.01 0.01 0.02 0.03 0.02 0.01 0.00 0.00 0.01 0.02 0.02 0.02 0.02 0.03 0.03 0.06 0.07 0.06 0.03 0.01 0.01 0.01 0.01 0.02 0.00 0.01 0.02 0.05 0.06 0.05 0.16 0.31 0.28 0.23
0.00 0.00 0.00 0.00 0.01 0.00 0.00 0.00 0.01 0.01 0.02 0.01 0.01 0.02 0.03 0.01 0.00 0.00 0.00 0.01 0.03 0.04 0.03 0.08 0.09 0.07 0.03 0.02 0.02 0.01 0.01 0.01 0.01 0.01 0.00 0.02 0.07 0.11 0.09 0.13 0.55 0.93 0.96
0.01 0.01 0.01 0.00 0.00 0.01 0.01 0.01 0.01 0.00 0.00 0.00 0.00 0.00 0.00 0.00 0.00 0.00 0.00 0.00 0.00 0.01 0.01 0.02 0.03 0.02 0.04 0.05 0.08 0.07 0.05 0.04 0.03 0.03 0.02 0.02 0.02 0.05 0.08 0.15 0.23 0.32 0.51
0.01 0.01 0.01 0.02 0.01 0.01 0.02 0.04 0.01 0.00 0.00 0.00 0.00 0.00 0.00 0.00 0.00 0.00 0.01 0.00 0.00 0.01 0.00 0.00 0.01 0.01 0.01 0.02 0.07 0.11 0.11 0.09 0.09 0.07 0.04 0.02 0.00 0.00 0.05 0.08 0.08 0.11 0.11
0.01 0.03 0.01 0.02 0.02 0.03 0.03 0.03 0.03 0.01 0.00 0.00 0.01 0.01 0.00 0.00 0.00 0.00 0.01 0.01 0.00 0.01 0.00 0.00 0.00 0.00 0.01 0.01 0.01 0.06 0.12 0.13 0.13 0.10 0.08 0.04 0.01 0.01 0.01 0.03 0.02 0.02 0.03
0.01 0.01 0.01 0.01 0.02 0.02 0.02 0.02 0.02 0.02 0.01 0.01 0.01 0.01 0.02 0.01 0.00 0.01 0.01 0.00 0.00 0.01 0.00 0.01 0.02 0.03 0.04 0.04 0.04 0.07 0.14 0.16 0.16 0.16 0.13 0.10 0.11 0.12 0.07 0.06 0.04 0.06 0.08
0.01 0.02 0.01 0.01 0.01 0.01 0.01 0.02 0.02 0.02 0.01 0.01 0.01 0.00 0.00 0.02 0.00 0.00 0.01 0.01 0.02 0.03 0.02 0.07 0.08 0.09 0.09 0.11 0.12 0.13 0.13 0.15 0.19 0.23 0.19 0.18 0.19 0.22 0.13 0.10 0.06 0.08 0.10
0.00 0.01 0.01 0.01 0.01 0.01 0.01 0.02 0.02 0.02 0.01 0.01 0.01 0.01 0.02 0.01 0.01 0.01 0.02 0.03 0.05 0.06 0.07 0.08 0.14 0.15 0.18 0.19 0.17 0.16 0.18 0.13 0.11 0.13 0.16 0.21 0.19 0.17 0.16 0.16 0.16 0.14 0.13
0.00 0.00 0.00 0.00 0.01 0.00 0.01 0.01 0.01 0.00 0.00 0.00 0.00 0.01 0.04 0.03 0.03 0.05 0.06 0.05 0.06 0.07 0.08 0.09 0.13 0.16 0.15 0.12 0.14 0.14 0.12 0.10 0.10 0.09 0.12 0.18 0.24 0.24 0.27 0.25 0.21 0.19 0.19
0.00 0.00 0.00 0.00 0.00 0.00 0.01 0.00 0.00 0.00 0.00 0.01 0.01 0.02 0.03 0.03 0.03 0.05 0.07 0.08 0.10 0.12 0.16 0.15 0.16 0.14 0.10 0.07 0.07 0.09 0.10 0.10 0.11 0.16 0.22 0.19 0.29 0.34 0.33 0.28 0.23 0.21 0.19
0.00 0.00 0.00 0.00 0.00 0.00 0.00 0.00 0.00 0.00 0.00 0.03 0.14 0.18 0.11 0.15 0.18 0.16 0.16 0.17 0.22 0.26 0.24 0.27 0.33 0.38 0.37 0.33 0.28 0.19 0.13 0.12 0.11 0.14 0.20 0.20 0.22 0.22 0.22 0.22 0.17 0.17 0.16
0.00 0.00 0.00 0.00 0.00 0.00 0.00 0.00 0.00 0.00 0.02 0.08 0.26 0.21 0.26 0.29 0.21 0.31 0.28 0.25 0.25 0.29 0.34 0.40 0.38 0.36 0.33 0.31 0.33 0.32 0.34 0.29 0.12 0.09 0.15 0.19 0.22 0.24 0.20 0.19 0.22 0.22 0.18
0.00 0.00 0.00 0.00 0.00 0.00 0.00 0.00 0.00 0.00 0.01 0.02 0.11 0.31 0.42 0.38 0.33 0.32 0.31 0.28 0.27 0.28 0.27 0.26 0.22 0.23 0.25 0.20 0.18 0.21 0.25 0.22 0.24 0.33 0.33 0.28 0.27 0.23 0.22 0.20 0.20 0.25 0.26